#timestamp,LO_Frequency,Hit,StdDev 
1647320415.7,286047003.8,N
1647320435.5,286047005.6,N
1647320455.4,286047003.0,N
1647320475.2,286047001.6,N
1647320495.1,286047000.1,N
1647320496.0,286047000.1,N
1647320515.8,286047004.3,N
1647320535.6,286047000.2,N
1647320555.5,286047002.4,N
1647320575.3,286047002.2,N
1647320595.1,286047002.5,N
1647320615.9,286047002.4,N
1647320635.7,286047000.4,N
1647320655.6,286047002.3,N
1647320675.4,286047004.2,N
1647320695.2,286047004.0,N
1647320715.1,286047004.4,N
1647320716.0,286047004.4,N
1647320735.8,286047003.8,N
1647320755.6,286047000.4,N
1647320775.5,286047000.9,N
1647320795.3,286047002.6,N
1647320815.2,286047000.9,N
1647320835.9,286047002.4,N
1647320855.7,286047002.8,N
1647320875.6,286046999.9,N
1647320895.4,286047000.8,N
1647320915.3,286046998.8,N
1647320935.1,286046997.0,N
1647320936.0,286046997.0,N
1647320955.8,286046996.5,N
1647320975.7,286046997.0,N
1647320995.5,286046996.9,N
1647321015.3,286046998.3,N
1647321035.2,286046999.5,N
1647321055.0,286046998.2,N
1647321055.9,286046998.2,N
1647321075.8,286046998.5,N
1647321095.6,286046998.9,N
1647321115.4,286046999.4,N
1647321135.3,286046998.4,N
1647321155.1,286046999.1,N
1647321175.9,286046997.0,N
1647321195.7,286046996.9,N
1647321215.5,286046998.5,N
1647321235.4,286046999.0,N
1647321255.2,286046999.1,N
1647321275.0,286046997.3,N
1647321275.9,286046997.3,N
1647321295.8,286046999.4,N
1647321315.6,286046998.7,N
1647321335.5,286046999.6,N
1647321355.3,286046999.4,N
1647321375.1,286046996.5,N
1647321395.9,286046997.6,N
1647321415.7,286046994.9,Y
1647321435.6,286046997.1,P
1647321455.4,286046995.0,P
1647321475.2,286046995.7,P
1647321495.1,286046996.2,Y
1647321496.0,286046996.2,P
1647321515.8,286047000.6,P
1647321535.7,286047000.1,N
1647321555.5,286047000.2,N
1647321575.3,286047001.9,N
1647321595.2,286047002.4,N
1647321615.0,286047000.8,N
1647321615.9,286047000.8,N
1647321635.7,286047000.5,N
1647321655.6,286046999.9,N
1647321675.4,286047000.1,N
1647321695.3,286047002.7,N
1647321715.1,286047000.4,N
1647321716.0,286047000.4,N
1647321735.8,286047000.1,N
1647321755.7,286047002.3,N
1647321775.5,286047001.9,N
1647321795.3,286047001.9,N
1647321815.2,286046999.7,N
1647321835.0,286047000.8,N
1647321835.9,286047000.8,N
1647321855.8,286046998.1,N
1647321875.6,286046998.6,N
1647321895.4,286046996.9,N
1647321915.3,286046999.5,N
1647321935.1,286046999.3,N
1647321955.8,286046999.3,N
1647321975.7,286046998.4,N
1647321995.5,286046998.8,N
1647322015.4,286046998.7,N
1647322035.2,286046999.2,N
1647322055.0,286046997.0,N
1647322055.9,286046997.0,N
1647322075.8,286046997.5,N
1647322095.6,286046999.2,N
1647322115.5,286046996.5,N
1647322135.3,286046999.0,N
1647322155.1,286047001.1,N
1647322175.9,286047000.6,N
1647322195.7,286047000.5,N
1647322215.5,286047000.4,N
1647322235.4,286046998.3,N
1647322255.2,286046999.3,N
1647322275.0,286046996.9,N
1647322276.0,286046996.9,N
1647322295.8,286046999.6,N
1647322315.6,286046998.8,N
1647322335.5,286046998.3,N
1647322355.3,286047000.9,N
1647322375.1,286047001.1,N
1647322395.9,286047000.2,N
1647322415.7,286046998.7,N
1647322435.5,286046996.9,N
1647322455.4,286046999.6,N
1647322475.2,286046996.5,N
1647322495.1,286047000.7,N
1647322496.0,286047000.7,N
1647322515.8,286046999.1,N
1647322535.6,286046997.0,N
1647322555.5,286046999.5,N
1647322575.3,286046998.9,N
1647322595.1,286046996.5,N
1647322615.9,286046998.2,N
1647322635.7,286046999.1,N
1647322655.6,286046997.7,N
1647322675.4,286046996.5,N
1647322695.2,286046999.1,N
1647322715.1,286046999.1,N
1647322716.0,286046999.1,N
1647322735.8,286046998.2,N
1647322755.6,286046998.2,N
1647322775.5,286046999.3,N
1647322795.3,286046998.5,N
1647322815.2,286047000.5,N
1647322835.9,286047000.9,N
1647322855.7,286046998.3,N
1647322875.6,286046998.6,N
1647322895.4,286047000.5,N
1647322915.2,286046998.6,N
1647322935.1,286046998.6,N
1647322936.0,286046998.6,N
1647322955.8,286046999.6,N
1647322975.7,286046998.3,N
1647322995.5,286046999.1,N
1647323015.3,286046998.8,N
1647323035.2,286046999.0,N
1647323055.0,286046999.4,N
1647323055.9,286046999.4,N
1647323075.8,286047001.0,N
1647323095.6,286047000.2,N
1647323115.4,286046999.9,N
1647323135.3,286047001.0,N
1647323155.1,286046998.4,N
1647323175.8,286047000.4,N
1647323195.7,286047000.9,N
1647323215.5,286046998.2,N
1647323235.4,286047001.2,N
1647323255.2,286047001.2,N
1647323275.0,286046998.1,N
1647323275.9,286046998.1,N
1647323295.8,286047000.8,N
1647323315.6,286046998.5,N
1647323335.4,286046998.1,N
1647323355.3,286047000.9,N
1647323375.1,286047000.9,N
1647323395.9,286046998.3,N
1647323415.7,286047000.8,N
1647323435.5,286047001.0,N
1647323455.4,286046998.2,N
1647323475.2,286047000.3,N
1647323495.0,286046999.0,N
1647323495.9,286046999.0,N
1647323515.8,286046998.7,N
1647323535.6,286046998.8,N
1647323555.5,286047000.8,N
1647323575.3,286046998.1,N
1647323595.1,286046998.9,N
1647323615.9,286046999.0,N
1647323635.7,286047002.7,N
1647323655.5,286046998.3,N
1647323675.4,286046998.5,N
1647323695.2,286046999.4,N
1647323715.0,286046998.8,N
1647323716.0,286046998.8,N
1647323735.8,286046999.3,N
1647323755.6,286047000.0,N
1647323775.5,286047000.5,N
1647323795.3,286046998.5,N
1647323815.1,286047000.0,N
1647323835.9,286047001.2,N
1647323855.7,286046998.2,N
1647323875.5,286047000.9,N
1647323895.4,286047001.0,N
1647323915.2,286047002.1,N
1647323935.1,286047002.7,N
1647323936.0,286047002.7,N
1647323955.8,286047003.7,N
1647323975.7,286047003.5,N
1647323995.5,286047002.2,N
